Chester, CT

1:38 PM EST on December 06, 2019 (GMT -0500)
Chester

Weather History for KSNC - August, 2019

Change the Weather History Date:

Thursday, August 29, 2019

  Actual Average (WUND) Record (WUND)
Temperature  
Mean Temperature 74 °F -  
Max Temperature 84 °F - - (-1)
Min Temperature 64 °F - - (-1)
Cooling Degree Days 9    
Growing Degree Days 24 (Base 50)    
Moisture  
Dew Point 61 °F    
Average Humidity 68    
Maximum Humidity 100    
Minimum Humidity 37    
Precipitation  
Precipitation 0.00 in - - ()
Sea Level Pressure  
Sea Level Pressure 29.87 in    
Wind  
Wind Speed 7 mph ()    
Max Wind Speed 16 mph    
Max Gust Speed 22 mph    
Visibility 9.8 miles    
Events      
Averages and records for this station are not official NWS values.
T = Trace of Precipitation, MM = Missing Value Source: Averaged Metar Reports

Daily Weather History Graph

Daily Weather History Graph

Search for Another Location

Airport or City:

Astronomy

Aug. 29, 2019 Rise Set
Actual Time 6:13 AM EDT 7:28 PM EDT
Civil Twilight 5:44 AM EDT 7:56 PM EDT
Nautical Twilight 5:10 AM EDT 8:30 PM EDT
Astronomical Twilight 4:33 AM EDT 9:06 PM EDT
Moon 4:53 AM EDT (8/29) 7:23 PM EDT (8/29)
Length of Visible Light 14h 12m
Length of Day
13h 15m
Waning Crescent, 1% of the Moon is Illuminated
Aug 29
Waning Crescent
Aug 30
New
Sep 5
First Quarter
Sep 14
Full
Sep 21
Last Quarter

Hourly Weather History & Observations

Time (EDT) Temp. Heat Index Dew Point Humidity Pressure Visibility Wind Dir Wind Speed Gust Speed Precip Events Conditions
12:15 AM 68.0 °F - 68.0 °F 100% 29.82 in 7.0 mi NNW 5.8 mph - N/A   Light Drizzle
12:35 AM 68.0 °F - 68.0 °F 100% 29.82 in 6.0 mi Calm Calm - N/A   Overcast
12:55 AM 68.0 °F - 68.0 °F 100% 29.82 in 7.0 mi Calm Calm - N/A   Overcast
1:15 AM 68.0 °F - 68.0 °F 100% 29.81 in 8.0 mi NNW 4.6 mph - N/A   Overcast
3:15 AM 68.0 °F - 68.0 °F 100% 29.79 in 9.0 mi NNW 8.1 mph 15.0 mph N/A   Scattered Clouds
3:35 AM 68.0 °F - 68.0 °F 100% 29.78 in 10.0 mi NNW 11.5 mph - N/A   Clear
3:55 AM 68.0 °F - 68.0 °F 100% 29.78 in 10.0 mi NNW 9.2 mph 16.1 mph N/A   Partly Cloudy
4:15 AM 68.0 °F - 68.0 °F 100% 29.78 in 10.0 mi NNW 8.1 mph - N/A   Scattered Clouds
4:35 AM 68.0 °F - 68.0 °F 100% 29.79 in 10.0 mi Variable 6.9 mph - N/A   Scattered Clouds
4:55 AM 68.0 °F - 66.2 °F 94% 29.80 in 10.0 mi NNW 9.2 mph - N/A   Scattered Clouds
5:15 AM 66.2 °F - 64.4 °F 94% 29.80 in 10.0 mi North 8.1 mph 13.8 mph N/A   Mostly Cloudy
5:35 AM 66.2 °F - 64.4 °F 94% 29.81 in 10.0 mi NNW 9.2 mph - N/A   Mostly Cloudy
5:55 AM 66.2 °F - 64.4 °F 94% 29.82 in 10.0 mi NNW 8.1 mph - N/A   Mostly Cloudy
6:15 AM 66.2 °F - 64.4 °F 94% 29.82 in 10.0 mi NNW 9.2 mph - N/A   Overcast
6:35 AM 66.2 °F - 62.6 °F 88% 29.83 in 10.0 mi NNW 10.4 mph 16.1 mph N/A   Overcast
6:55 AM 66.2 °F - 62.6 °F 88% 29.83 in 10.0 mi NNW 11.5 mph - N/A   Mostly Cloudy
7:15 AM 66.2 °F - 62.6 °F 88% 29.83 in 10.0 mi NNW 11.5 mph - N/A   Scattered Clouds
7:35 AM 68.0 °F - 62.6 °F 83% 29.82 in 10.0 mi NNW 11.5 mph - N/A   Scattered Clouds
8:15 AM 69.8 °F - 62.6 °F 78% 29.82 in 10.0 mi NNW 13.8 mph 21.9 mph N/A   Scattered Clouds
8:35 AM 69.8 °F - 62.6 °F 78% 29.83 in 10.0 mi NNW 11.5 mph 18.4 mph N/A   Scattered Clouds
8:55 AM 69.8 °F - 62.6 °F 78% 29.83 in 10.0 mi NNW 16.1 mph - N/A   Partly Cloudy
9:15 AM 73.4 °F - 62.6 °F 69% 29.84 in 10.0 mi North 12.7 mph - N/A   Clear
9:35 AM 73.4 °F - 62.6 °F 69% 29.85 in 10.0 mi North 10.4 mph 18.4 mph N/A   Clear
9:55 AM 75.2 °F - 60.8 °F 61% 29.86 in 10.0 mi North 12.7 mph 20.7 mph N/A   Clear
10:15 AM 75.2 °F - 60.8 °F 61% 29.86 in 10.0 mi North 12.7 mph 21.9 mph N/A   Clear
10:35 AM 77.0 °F - 60.8 °F 57% 29.86 in 10.0 mi NNW 11.5 mph 18.4 mph N/A   Clear
10:55 AM 77.0 °F - 60.8 °F 57% 29.86 in 10.0 mi North 11.5 mph 18.4 mph N/A   Clear
11:15 AM 78.8 °F - 60.8 °F 54% 29.87 in 10.0 mi NNW 10.4 mph 18.4 mph N/A   Clear
11:35 AM 78.8 °F - 60.8 °F 54% 29.86 in 10.0 mi NNW 10.4 mph - N/A   Clear
11:55 AM 80.6 °F 81.5 °F 60.8 °F 51% 29.86 in 10.0 mi North 8.1 mph 16.1 mph N/A   Clear
12:15 PM 80.6 °F 81.5 °F 60.8 °F 51% 29.87 in 10.0 mi NNW 9.2 mph - N/A   Clear
12:35 PM 80.6 °F 81.5 °F 60.8 °F 51% 29.86 in 10.0 mi Variable 5.8 mph - N/A   Clear
12:55 PM 80.6 °F 81.5 °F 60.8 °F 51% 29.86 in 10.0 mi WNW 9.2 mph - N/A   Partly Cloudy
1:15 PM 80.6 °F 80.8 °F 57.2 °F 45% 29.86 in 10.0 mi NNW 10.4 mph 17.3 mph N/A   Partly Cloudy
1:35 PM 82.4 °F 82.0 °F 57.2 °F 42% 29.86 in 10.0 mi NW 8.1 mph - N/A   Clear
2:15 PM 82.4 °F 81.4 °F 53.6 °F 37% 29.85 in 10.0 mi NW 10.4 mph 16.1 mph N/A   Clear
2:35 PM 84.2 °F 83.0 °F 55.4 °F 37% 29.85 in 10.0 mi North 9.2 mph 17.3 mph N/A   Clear
2:55 PM 82.4 °F 81.7 °F 55.4 °F 39% 29.85 in 10.0 mi NW 11.5 mph - N/A   Clear
3:15 PM 84.2 °F 83.5 °F 57.2 °F 40% 29.85 in 10.0 mi NW 10.4 mph - N/A   Clear
3:35 PM 82.4 °F 81.7 °F 55.4 °F 39% 29.85 in 10.0 mi WNW 11.5 mph - N/A   Clear
3:55 PM 84.2 °F 83.0 °F 55.4 °F 37% 29.85 in 10.0 mi NNW 10.4 mph - N/A   Clear
4:15 PM 82.4 °F 81.4 °F 53.6 °F 37% 29.84 in 10.0 mi NW 10.4 mph 17.3 mph N/A   Clear
4:35 PM 82.4 °F 81.4 °F 53.6 °F 37% 29.85 in 10.0 mi NW 10.4 mph - N/A   Clear
4:55 PM 82.4 °F 81.7 °F 55.4 °F 39% 29.85 in 10.0 mi Variable 6.9 mph - N/A   Clear
5:15 PM 82.4 °F 81.7 °F 55.4 °F 39% 29.86 in 10.0 mi NW 10.4 mph - N/A   Clear
5:35 PM 80.6 °F 80.8 °F 57.2 °F 45% 29.86 in 10.0 mi Variable 5.8 mph - N/A   Clear
5:55 PM 78.8 °F - 57.2 °F 47% 29.87 in 10.0 mi NW 6.9 mph - N/A   Clear
6:15 PM 78.8 °F - 59.0 °F 51% 29.87 in 10.0 mi NW 3.5 mph - N/A   Clear
6:35 PM 78.8 °F - 59.0 °F 51% 29.89 in 10.0 mi NW 6.9 mph - N/A   Clear
6:55 PM 75.2 °F - 60.8 °F 61% 29.89 in 10.0 mi Variable 3.5 mph - N/A   Partly Cloudy
7:15 PM 71.6 °F - 60.8 °F 69% 29.90 in 10.0 mi Calm Calm - N/A   Clear
7:35 PM 71.6 °F - 60.8 °F 69% 29.91 in 10.0 mi WNW 4.6 mph - N/A   Clear
7:55 PM 69.8 °F - 60.8 °F 73% 29.93 in 10.0 mi Variable 3.5 mph - N/A   Scattered Clouds
8:15 PM 69.8 °F - 60.8 °F 73% 29.94 in 10.0 mi WNW 4.6 mph - N/A   Scattered Clouds
8:35 PM 69.8 °F - 59.0 °F 68% 29.95 in 10.0 mi NW 5.8 mph - N/A   Partly Cloudy
8:55 PM 69.8 °F - 59.0 °F 68% 29.96 in 10.0 mi NW 4.6 mph - N/A   Scattered Clouds
9:15 PM 68.0 °F - 59.0 °F 73% 29.96 in 10.0 mi Calm Calm - N/A   Scattered Clouds
9:35 PM 68.0 °F - 59.0 °F 73% 29.97 in 10.0 mi WNW 3.5 mph - N/A   Clear
9:55 PM 68.0 °F - 59.0 °F 73% 29.97 in 10.0 mi NW 5.8 mph - N/A   Clear
10:15 PM 66.2 °F - 57.2 °F 73% 29.98 in 10.0 mi NW 5.8 mph - N/A   Clear
10:35 PM 66.2 °F - 57.2 °F 73% 29.98 in 10.0 mi NW 3.5 mph - N/A   Clear
10:55 PM 66.2 °F - 57.2 °F 73% 29.98 in 10.0 mi NW 4.6 mph - N/A   Clear
11:15 PM 66.2 °F - 57.2 °F 73% 29.98 in 10.0 mi Calm Calm - N/A   Clear
11:35 PM 64.4 °F - 57.2 °F 77% 29.98 in 10.0 mi WNW 3.5 mph - N/A   Clear
11:55 PM 64.4 °F - 57.2 °F 77% 29.98 in 10.0 mi WNW 3.5 mph - N/A   Clear